"Pseudo-MPEC" for P11JPi1

Created 2023 Sep 19 16:22:26 UT using Find_Orb

Click here for an explanation of pseudo-MPECs

 
 Astrometry: 
     P11JPi1  C2023 08 19cBFctxlk9k\TSHJSPksu67cWY9r7oYT7Y=fWc1JTm%ao)nENAuUWF51
     P11JPi1  C2023 08 19friy1a6ZtDKSaAstrometry7d$h2JGs?Pg?%/n4@Z,/YqJJQDnQ0F51
     P11JPi1  C2023 08 19n;4p^!t+t:\3;K')Ea5U@`%j7$9mUI;K7f/8`:3TP)gETnNS/=bPF51
     P11JPi1  C2023 08 19#BtnF3U61ZNwif8^yFh(446\DlZ,v]NJRN8H^NY1biIBIh%7VotsF51
     P11JPi1 1C2023 09 07.44778201 35 52.940-11 45 02.09   ~9JC7 20.71GVNEOCPG96
     P11JPi1 1C2023 09 07.45292501 35 52.825-11 45 04.79   ~9JC7 20.61GVNEOCPG96
     P11JPi1 1C2023 09 07.45806701 35 52.739-11 45 07.60   ~9JC7 20.52GVNEOCPG96
     P11JPi1 1C2023 09 07.46473501 35 52.602-11 45 11.20   ~9JC7 20.89GVNEOCPG96
     P11JPi1  C2023 09 079@Sj(@BWXj;-$3/5ux8uuaytoMGcmcckk)gb2=o6+$%W=,Xt,WnUF51
     P11JPi1  C2023 09 07*pQp':;MD]O,IGU9R3XD[4P9.\KWl/M0redacted;awl!m?EPH+SF51
     P11JPi1  C2023 09 07o`l!N04rEI^e_cBQsIZ.[m'[wO@Py'B/,4'Q7PjjSxA!]`!EvI1VF51
     P11JPi1  C2023 09 07Q+/2McA4RIeCSUyCcw?CRV*-ZV(EW8Pb!cie^#=aC`oR98o619BhF51
     P11JPi1* C2023 09 17wOD1`V=?,YtI_.ZVIWp//1YyBrAdoK.156(.v;(F=B.QRW.IvrX-F51
     P11JPi1  C2023 09 17Q2)#Snr$VR5EB=SX6P2clickL[d*D3ZFAGXJJervjO(Yt$Q(BcamF51
     P11JPi1  C2023 09 17*gOnKs\+i(Lj:Q:%IjIRr]Mv4UrQM3y1!N%!;2DC847C(=GrfyDIF51
     P11JPi1  C2023 09 17t75lCZBM5J-;KH'IFt]]qe]Ar[jxU\4!%P5GXJqheree@v3!E3u\F51
     P11JPi1  C2023 09 17qGGqe^8]s]6NsJ)xT?y2CJQcF?eER:'I;(u'@g9$TAwXJO3i(y3RF51
     P11JPi1  C2023 09 17+PRJoQVd2Z%:/,4v%MUYn,ls\YbdXOq=ZIAO!R932?(A%q^DLrlYF51
     P11JPi1 3C2023 09 18deoC(for3U1*sk.nAcF4PX-XS3OKKMQC?d-_Y*gm`RQ3D_'eNyS`K92
     P11JPi1 3C2023 09 18-e:tn?EAJC;5PTn5u;uMG.q,i6cq6Xw'LKPEJqomf*x@S3;HbCoJK92
     P11JPi1 3C2023 09 18:V9Q?1A[CrIClHG=;^mY/ZNWBqMl2)_=Hp^]m0ypSF6ol5!vdX[_K92
     P11JPi1 3C2023 09 18dGhJd6tMh2M8?MWtEGCGexplanation9`]n\!LU\2?*TiHEdKr,7K92
     P11JPi1 mC2023 09 19.35471401 29 24.200-13 28 06.50   ~9J9M 20.77GVNEOCPI52
     P11JPi1 mC2023 09 19.36275801 29 23.780-13 28 10.30   ~9J9M       VNEOCPI52
     P11JPi1 mC2023 09 19.37793201 29 23.040-13 28 17.40   ~9J9M 20.83GVNEOCPI52

Station data:
(F51) Pan-STARRS 1, Haleakala  (N20.707234 W156.255910)  US/Hawaii.
   Observers J. Bulger, T. Lowe, A. Schultz, M. Willman. Measurers K.
   Chambers, S. Chastel, T. de Boer, L. Denneau, J. Fairlamb, H. Flewelling,
   M. Huber, C.-C. Lin, E. Magnier, Y. Ramanjooloo, R. Wainscoat, R. Weryk.
   1.8-m Ritchey-Chrétien + CCD.
(G96) Mt. Lemmon Survey  (N32.442751 W110.788720)  US/Arizona.  Observer E.
   J. Christensen. 1.5-m reflector + 10K CCD.
(I52) Steward Observatory, Mt. Lemmon Station  (N32.442544 W110.788920)
   US/Arizona.  Observers T. A. Pruyne, B. M. Africano, E. J. Christensen, G.
   A. Farneth, D. C. Fuls, A. R. Gibbs, A. D. Grauer, H. Gröller, J. A.
   Johnson, R. A. Kowalski, S. M. Larson, G. J. Leonard, D. Rankin, R. L.
   Seaman, F. C. Shelly, K. W. Wierzchoś. 1.0-m prime focus + CCD.
(K92) Sutherland-LCO B  (S32.380540 E20.810040)  South Africa.  Observers T.
   Lister, S. Greenstreet, E. Gomez. Measurer S. Greenstreet. 1.0-m f/6.3
   Cassegrain + CCD.

Orbital elements:  P11JPi1
   Perihelion 2023 Jun 1.50073 +/- 0.00317 TT = 12:01:03 (JD 2460097.00073)
Epoch 2023 Sep 19.0 TT = JDT 2460206.5   Earth MOID: 0.5546      AutoNEOCP
M  31.84501742 +/- 0.0044           (J2000 ecliptic)
n   0.29082402 +/- 3.48e-5          Peri.  204.74606 +/- 0.0038
a   2.25622561 +/- 0.00018          Node   101.28901 +/- 0.0027
e   0.3065790 +/- 7.03e-5           Incl.    9.63525 +/- 0.00023
P   3.39                   H 19.04  G  0.15   U  5.9
q 1.56451403 +/- 4.7e-5    Q 2.94793719 +/- 0.000391
From 25 observations 2023 Aug. 19-Sept. 19; mean residual 0".14
Residuals in arcseconds: 
230819 F51  .12-  .06-    230907 F51  .09+  .01-    230918 K92  .18-  .05-    
230819 F51  .05+  .00     230907 F51  .00   .15-    230918 K92  .07-  .24-    
230819 F51  .07+  .00     230907 F51  .08-  .02+    230918 K92  .08+  .31-    
230819 F51  .00   .06+    230917 F51  .03-  .04+    230918 K92  .21+  .29-    
230907 G96  .10-  .05+    230917 F51  .06-  .07+    230919 I52  .15+  .14+    
230907 G96  .11-  .16+    230917 F51  .00   .01-    230919 I52  .19-  .12+    
230907 G96  .31+  .15+    230917 F51  .01+  .06+    230919 I52  .05-  .14+    
230907 G96  .47+  .17+    230917 F51  .08+  .03-    
230907 F51  .10-  .04+    230917 F51  .01+  .02-    

Ephemerides (geocentric):
Date (UTC) HH   RA             Dec           delta  r     elong  mag " sig PA
---- --------  ------------   ------------  ------ ------ -----  --- --------
2023 09 19 16  01 29 09.858   -13 30 24.56  .81075 1.7612 151.8 20.7 .054 130
2023 09 19 17  01 29 07.942   -13 30 43.92  .81078 1.7614 151.8 20.7 .054 130
2023 09 19 18  01 29 06.023   -13 31 03.26  .81080 1.7615 151.8 20.7 .055 130
2023 09 19 19  01 29 04.101   -13 31 22.57  .81083 1.7616 151.9 20.7 .055 130
2023 09 19 20  01 29 02.176   -13 31 41.87  .81085 1.7618 151.9 20.7 .056 130
2023 09 19 21  01 29 00.247   -13 32 01.14  .81088 1.7619 151.9 20.7 .056 130
2023 09 19 22  01 28 58.316   -13 32 20.39  .81090 1.7620 152.0 20.7 .057 131
2023 09 19 23  01 28 56.381   -13 32 39.62  .81093 1.7622 152.0 20.7 .057 131
2023 09 20 00  01 28 54.444   -13 32 58.83  .81095 1.7623 152.0 20.7 .058 131
2023 09 20 01  01 28 52.503   -13 33 18.01  .81098 1.7624 152.1 20.7 .058 131
2023 09 20 02  01 28 50.559   -13 33 37.18  .81101 1.7625 152.1 20.7 .059 131
2023 09 20 03  01 28 48.613   -13 33 56.32  .81103 1.7627 152.1 20.7 .060 131
2023 09 20 04  01 28 46.663   -13 34 15.43  .81106 1.7628 152.1 20.7 .060 131
2023 09 20 05  01 28 44.710   -13 34 34.53  .81109 1.7629 152.2 20.7 .061 131
2023 09 20 06  01 28 42.754   -13 34 53.60  .81111 1.7631 152.2 20.7 .061 131
2023 09 20 07  01 28 40.795   -13 35 12.65  .81114 1.7632 152.2 20.7 .062 131
2023 09 20 08  01 28 38.834   -13 35 31.68  .81117 1.7633 152.3 20.7 .062 131
2023 09 20 09  01 28 36.869   -13 35 50.68  .81120 1.7635 152.3 20.7 .063 132
2023 09 20 10  01 28 34.901   -13 36 09.66  .81123 1.7636 152.3 20.7 .063 132
2023 09 20 11  01 28 32.930   -13 36 28.62  .81126 1.7637 152.4 20.7 .064 132
2023 09 20 12  01 28 30.956   -13 36 47.55  .81129 1.7639 152.4 20.7 .064 132
2023 09 20 13  01 28 28.980   -13 37 06.46  .81132 1.7640 152.4 20.7 .065 132
2023 09 20 14  01 28 27.000   -13 37 25.35  .81135 1.7641 152.5 20.7 .066 132
2023 09 20 15  01 28 25.017   -13 37 44.22  .81138 1.7643 152.5 20.7 .066 132
2023 09 20 16  01 28 23.032   -13 38 03.06  .81141 1.7644 152.5 20.7 .067 132
2023 09 20 17  01 28 21.043   -13 38 21.88  .81144 1.7645 152.5 20.7 .067 132
2023 09 20 18  01 28 19.052   -13 38 40.67  .81147 1.7646 152.6 20.7 .068 132
2023 09 20 19  01 28 17.057   -13 38 59.44  .81150 1.7648 152.6 20.7 .068 132
2023 09 20 20  01 28 15.060   -13 39 18.19  .81154 1.7649 152.6 20.7 .069 133
2023 09 20 21  01 28 13.060   -13 39 36.91  .81157 1.7650 152.7 20.7 .069 133
2023 09 20 22  01 28 11.056   -13 39 55.61  .81160 1.7652 152.7 20.7 .070 133
2023 09 20 23  01 28 09.050   -13 40 14.29  .81164 1.7653 152.7 20.7 .070 133
2023 09 21 00  01 28 07.041   -13 40 32.94  .81167 1.7654 152.8 20.7 .071 133
2023 09 21 01  01 28 05.030   -13 40 51.57  .81170 1.7656 152.8 20.7 .072 133
2023 09 21 02  01 28 03.015   -13 41 10.18  .81174 1.7657 152.8 20.7 .072 133
2023 09 21 03  01 28 00.997   -13 41 28.76  .81177 1.7658 152.8 20.7 .073 133
2023 09 21 04  01 27 58.977   -13 41 47.31  .81181 1.7660 152.9 20.7 .073 133
2023 09 21 05  01 27 56.954   -13 42 05.85  .81184 1.7661 152.9 20.7 .074 133
2023 09 21 06  01 27 54.928   -13 42 24.36  .81188 1.7662 152.9 20.7 .074 133
2023 09 21 07  01 27 52.899   -13 42 42.84  .81191 1.7664 153.0 20.7 .075 133
2023 09 21 08  01 27 50.867   -13 43 01.30  .81195 1.7665 153.0 20.7 .075 134
2023 09 21 09  01 27 48.832   -13 43 19.74  .81199 1.7666 153.0 20.7 .076 134
2023 09 21 10  01 27 46.795   -13 43 38.15  .81202 1.7668 153.1 20.7 .077 134
2023 09 21 11  01 27 44.754   -13 43 56.53  .81206 1.7669 153.1 20.7 .077 134
2023 09 21 12  01 27 42.711   -13 44 14.89  .81210 1.7670 153.1 20.7 .078 134
2023 09 21 13  01 27 40.666   -13 44 33.23  .81213 1.7672 153.1 20.7 .078 134
2023 09 21 14  01 27 38.617   -13 44 51.54  .81217 1.7673 153.2 20.7 .079 134
2023 09 21 15  01 27 36.565   -13 45 09.83  .81221 1.7674 153.2 20.7 .079 134